DW1375 Weather Reports


Display with metric or nautical units.
time (UTC)temp
F
wind
direction
speed
MPH
gust
MPH
rain 1hr
in
rain 24hr
in
rain mn
in
humidity
%
barometer
mb
20191210041623 70 207 3.0 5.0 0.00 0.00 0.00 89 1013.0
20191210040115 70 213 2.0 5.0 0.00 0.00 0.00 87 1013.2
20191210034550 70 210 3.0 5.0 0.00 0.00 0.00 86 1013.4
20191210033126 70 217 3.0 5.0 0.00 0.00 0.00 86 1013.4
20191210031537 70 225 2.0 6.0 0.00 0.00 0.00 85 1013.6
20191210030045 70 217 2.0 6.0 0.00 0.00 0.00 85 1013.7
20191210024606 70 221 3.0 5.0 0.00 0.00 0.00 85 1013.7
20191210023109 70 192 2.0 5.0 0.00 0.00 0.00 85 1013.7
20191210021546 70 221 2.0 4.0 0.00 0.00 0.00 85 1014.0
20191210020046 70 195 2.0 4.0 0.00 0.00 0.00 85 1013.8
20191210014537 69 202 2.0 5.0 0.00 0.00 0.00 85 1013.8
20191210013035 69 175 2.0 4.0 0.00 0.00 0.00 86 1013.8
20191210011554 70 121 2.0 5.0 0.00 0.00 0.00 84 1013.8
20191210010031 69 171 4.0 5.0 0.00 0.00 0.00 85 1013.5
20191210004530 69 195 2.0 3.0 0.00 0.00 0.00 84 1013.5
20191210003056 69 273 1.0 5.0 0.00 0.00 0.00 85 1013.5
20191210001524 69 158 1.0 3.0 0.00 0.00 0.00 84 1013.3
20191210000023 69 206 0.0 3.0 0.00 0.00 0.00 84 1013.1
20191209234518 69 186 1.0 3.0 0.00 0.00 0.00 84 1013.0
20191209233025 69 208 0.0 2.0 0.00 0.00 0.00 84 1012.9
20191209231519 69 218 0.0 3.0 0.00 0.00 0.00 83 1012.8
20191209230103 70 236 0.0 3.0 0.00 0.00 0.00 82 1012.3
20191209224546 70 205 1.0 4.0 0.00 0.00 0.00 82 1012.3
20191209223027 70 181 2.0 4.0 0.00 0.00 0.00 81 1012.4
20191209221543 71 213 3.0 6.0 0.00 0.00 0.00 80 1012.4
20191209220041 71 190 2.0 5.0 0.00 0.00 0.00 80 1012.6
20191209214522 71 200 2.0 5.0 0.00 0.00 0.00 80 1012.3
20191209213033 71 223 4.0 6.0 0.00 0.00 0.00 80 1012.3
20191209211526 71 202 3.0 6.0 0.00 0.00 0.00 80 1012.4
20191209210043 71 213 4.0 6.0 0.00 0.00 0.00 80 1012.6
20191209204532 70 227 2.0 9.0 0.00 0.00 0.00 80 1012.6
20191209203010 70 232 3.0 6.0 0.00 0.00 0.00 80 1012.4
20191209201525 70 229 2.0 5.0 0.00 0.00 0.00 80 1012.5
20191209193016 70 230 3.0 6.0 0.00 0.00 0.00 79 1012.0
20191209191512 71 231 3.0 9.0 0.00 0.00 0.00 79 1011.8
20191209190004 70 223 3.0 7.0 0.00 0.00 0.00 79 1012.3
20191209184501 70 223 4.0 8.0 0.00 0.00 0.00 79 1012.6
20191209183232 70 214 3.0 7.0 0.00 0.00 0.00 79 1012.7
20191209181919 70 205 2.0 6.0 0.00 0.00 0.00 79 1012.8
20191209180142 69 226 4.0 7.0 0.00 0.00 0.00 80 1013.1
20191209174642 69 227 5.0 9.0 0.00 0.00 0.00 79 1013.4
20191209173156 69 227 4.0 6.0 0.00 0.00 0.00 78 1013.6
20191209171744 69 221 4.0 8.0 0.00 0.00 0.00 78 1013.8
20191209170150 70 223 5.0 8.0 0.00 0.00 0.00 78 1014.1
20191209164713 69 206 3.0 7.0 0.00 0.00 0.00 78 1014.2
20191209163130 68 223 3.0 5.0 0.00 0.00 0.00 81 1014.5
20191209161617 67 219 2.0 6.0 0.00 0.00 0.00 81 1014.7
20191209160147 68 211 3.0 6.0 0.00 0.00 0.00 81 1014.9
20191209154641 67 196 3.0 7.0 0.00 0.00 0.00 83 1015.1
20191209153124 65 138 3.0 7.0 0.00 0.00 0.00 87 1015.4
20191209151603 65 214 1.0 4.0 0.00 0.00 0.00 88 1015.4
20191209150059 64 242 1.0 3.0 0.00 0.00 0.00 89 1015.4
20191209144629 64 232 1.0 5.0 0.00 0.00 0.00 90 1015.4
20191209143101 63 178 2.0 5.0 0.00 0.00 0.00 90 1015.6
20191209141542 63 210 2.0 4.0 0.00 0.00 0.00 91 1015.6
20191209140027 63 200 2.0 5.0 0.00 0.00 0.00 92 1015.3
20191209134524 63 210 2.0 4.0 0.00 0.00 0.00 92 1015.4
20191209133020 62 205 3.0 5.0 0.00 0.00 0.00 92 1015.2
20191209131523 62 186 2.0 3.0 0.00 0.00 0.00 92 1015.0
20191209130117 62 221 1.0 3.0 0.00 0.00 0.00 92 1015.2
20191209124618 62 225 1.0 2.0 0.00 0.00 0.00 91 1015.1
20191209123152 62 225 1.0 2.0 0.00 0.00 0.00 89 1015.3
20191209121611 62 203 0.0 2.0 0.00 0.00 0.00 89 1014.6
20191209120105 62 209 1.0 4.0 0.00 0.00 0.00 88 1014.5
20191209114546 62 207 1.0 3.0 0.00 0.00 0.00 88 1014.5
20191209113059 63 175 1.0 4.0 0.00 0.00 0.00 88 1014.6
20191209111553 62 201 1.0 3.0 0.00 0.00 0.00 87 1014.6
20191209110048 62 206 0.0 2.0 0.00 0.00 0.00 87 1014.7
20191209104558 63 182 1.0 4.0 0.00 0.00 0.00 86 1014.8
20191209103033 62 206 1.0 4.0 0.00 0.00 0.00 86 1014.8
20191209101531 62 232 1.0 3.0 0.00 0.00 0.00 86 1015.0
20191209100054 62 156 2.0 5.0 0.00 0.00 0.00 86 1014.8
20191209094543 62 182 2.0 4.0 0.00 0.00 0.00 86 1014.9
20191209093032 62 171 2.0 4.0 0.00 0.00 0.00 85 1015.0
20191209091524 62 157 2.0 3.0 0.00 0.00 0.00 85 1014.8
20191209090043 62 167 3.0 5.0 0.00 0.00 0.00 85 1015.0
20191209084553 62 165 2.0 5.0 0.00 0.00 0.00 85 1015.4
20191209083038 62 206 0.0 3.0 0.00 0.00 0.00 85 1015.8
20191209081546 62 176 2.0 4.0 0.00 0.00 0.00 84 1015.7
20191209080020 63 164 2.0 4.0 0.00 0.00 0.00 84 1015.5
20191209073012 62 137 1.0 3.0 0.00 0.00 0.00 84 1015.7
20191209071533 62 175 2.0 4.0 0.00 0.00 0.00 84 1015.8
20191209070015 62 161 1.0 5.0 0.00 0.00 0.00 84 1016.1
20191209064504 62 178 1.0 3.0 0.00 0.00 0.00 83 1016.4
20191209063010 62 141 2.0 5.0 0.00 0.00 0.00 83 1016.2
20191209061502 62 142 1.0 3.0 0.00 0.00 0.00 83 1016.6
20191209060234 62 141 1.0 3.0 0.00 0.00 0.00 83 1016.7
20191209054713 62 153 2.0 3.0 0.00 0.00 0.00 83 1017.0
20191209053243 62 152 3.0 5.0 0.00 0.00 0.00 82 1017.0
20191209051709 62 161 2.0 4.0 0.00 0.00 0.00 82 1017.0
20191209050213 63 153 1.0 6.0 0.00 0.00 0.00 82 1017.3
20191209044623 63 160 3.0 7.0 0.00 0.00 0.00 81 1017.1
20191209043128 63 151 2.0 7.0 0.00 0.00 0.00 81 1017.4